EZY2998 EDDF-LSGG

Flight info

Callsign EZY2998
Flight time 0h 51m
Altitude 30000
Route ANEKI3F ANEKI Y163 HERBI Y164 MOPAN DCT LUTIX DCT BENOT
Aircraft A21N/M-SDE3FGHIRWY/LB1

Departure

Time 2026-04-18 06:03
Airport Frankfurt Main Airport (EDDF)

Arrival

Time 2026-04-18 06:55
Airport Geneva International Airport (LSGG)
Time Latitude Longitude Altitude Speed Heading
2026-04-18 05:54 50.04851 8.58252 367 ft 1 kts 68°
2026-04-18 05:54 50.04849 8.58245 367 ft 0 kts 69°
2026-04-18 05:57 50.04865 8.58308 367 ft 7 kts 71°
2026-04-18 05:57 50.04886 8.58398 368 ft 9 kts 70°
2026-04-18 05:57 50.04907 8.58490 368 ft 9 kts 70°
2026-04-18 05:58 50.04930 8.58586 369 ft 9 kts 70°
2026-04-18 05:58 50.04954 8.58688 369 ft 10 kts 70°
2026-04-18 05:58 50.04984 8.58814 370 ft 13 kts 70°
2026-04-18 05:58 50.05021 8.58968 370 ft 16 kts 69°
2026-04-18 05:59 50.05060 8.59131 370 ft 16 kts 70°
2026-04-18 05:59 50.05076 8.59261 370 ft 11 kts 113°
2026-04-18 05:59 50.05002 8.59338 371 ft 14 kts 157°
2026-04-18 05:59 50.04907 8.59407 371 ft 15 kts 149°
2026-04-18 06:00 50.04823 8.59510 371 ft 15 kts 141°
2026-04-18 06:00 50.04733 8.59596 371 ft 15 kts 165°
2026-04-18 06:00 50.04628 8.59619 371 ft 15 kts 176°
2026-04-18 06:00 50.04520 8.59623 372 ft 15 kts 186°
2026-04-18 06:01 50.04446 8.59478 371 ft 21 kts 252°
2026-04-18 06:01 50.04393 8.59230 370 ft 25 kts 249°
2026-04-18 06:01 50.04332 8.58976 369 ft 24 kts 249°
2026-04-18 06:01 50.04279 8.58768 367 ft 14 kts 250°
2026-04-18 06:02 50.04297 8.58633 367 ft 14 kts 341°
2026-04-18 06:02 50.04395 8.58634 368 ft 13 kts
2026-04-18 06:02 50.04476 8.58595 368 ft 13 kts 288°
2026-04-18 06:02 50.04450 8.58432 367 ft 24 kts 250°
2026-04-18 06:03 50.04296 8.57791 362 ft 102 kts 250°
2026-04-18 06:03 50.03966 8.56406 352 ft 166 kts 249°
2026-04-18 06:03 50.03519 8.54517 664 ft 193 kts 250°
2026-04-18 06:03 50.03058 8.52632 1602 ft 187 kts 250°
2026-04-18 06:04 50.02593 8.50824 2384 ft 185 kts 241°
2026-04-18 06:04 50.01596 8.49498 2842 ft 199 kts 200°
2026-04-18 06:04 50.00164 8.49024 3254 ft 220 kts 191°
2026-04-18 06:04 49.98596 8.49009 3708 ft 239 kts 162°
2026-04-18 06:05 49.97204 8.50474 4363 ft 250 kts 134°
2026-04-18 06:05 49.95959 8.52435 4955 ft 264 kts 146°
2026-04-18 06:05 49.94241 8.53402 5705 ft 268 kts 175°
2026-04-18 06:05 49.92367 8.53508 6627 ft 268 kts 181°
2026-04-18 06:06 49.90504 8.53494 7446 ft 272 kts 182°
2026-04-18 06:06 49.88622 8.53516 8219 ft 275 kts 180°
2026-04-18 06:06 49.86706 8.53591 9023 ft 277 kts 179°
2026-04-18 06:06 49.84764 8.53703 9805 ft 280 kts 179°
2026-04-18 06:07 49.83313 8.53799 10363 ft 283 kts 179°
2026-04-18 06:07 49.81657 8.53914 10801 ft 292 kts 179°
2026-04-18 06:07 49.79790 8.54042 11117 ft 308 kts 180°
2026-04-18 06:07 49.77764 8.54049 11416 ft 323 kts 184°
2026-04-18 06:08 49.77432 8.54030 11463 ft 326 kts 184°
2026-04-18 06:08 49.75182 8.53782 11851 ft 339 kts 187°
2026-04-18 06:08 49.72866 8.53477 12477 ft 344 kts 187°
2026-04-18 06:08 49.70521 8.53166 13140 ft 348 kts 187°
2026-04-18 06:09 49.68097 8.52844 13784 ft 353 kts 187°
2026-04-18 06:09 49.65646 8.52516 14428 ft 357 kts 187°
2026-04-18 06:09 49.63126 8.52180 15085 ft 361 kts 187°
2026-04-18 06:09 49.60606 8.51847 15724 ft 365 kts 187°
2026-04-18 06:10 49.58049 8.51510 16362 ft 368 kts 188°
2026-04-18 06:10 49.55555 8.51182 16953 ft 372 kts 188°
2026-04-18 06:10 49.52993 8.50846 17523 ft 375 kts 188°
2026-04-18 06:10 49.50371 8.50501 18084 ft 379 kts 188°
2026-04-18 06:11 49.47699 8.50149 18649 ft 383 kts 188°
2026-04-18 06:11 49.45066 8.49804 19209 ft 386 kts 188°
2026-04-18 06:11 49.42351 8.49447 19770 ft 389 kts 188°
2026-04-18 06:11 49.39652 8.49094 20300 ft 392 kts 188°
2026-04-18 06:12 49.36902 8.48734 20834 ft 395 kts 188°
2026-04-18 06:12 49.34121 8.48371 21361 ft 398 kts 188°
2026-04-18 06:12 49.31373 8.48012 21847 ft 400 kts 188°
2026-04-18 06:12 49.28568 8.47648 22347 ft 403 kts 188°
2026-04-18 06:13 49.25731 8.47280 22843 ft 406 kts 188°
2026-04-18 06:13 49.22867 8.46907 23331 ft 408 kts 188°
2026-04-18 06:13 49.20192 8.46558 23775 ft 411 kts 188°
2026-04-18 06:13 49.17308 8.46185 24238 ft 413 kts 188°
2026-04-18 06:14 49.14397 8.45807 24695 ft 415 kts 188°
2026-04-18 06:14 49.11509 8.45433 25144 ft 417 kts 188°
2026-04-18 06:14 49.08573 8.45030 25577 ft 419 kts 189°
2026-04-18 06:14 49.05697 8.44424 25991 ft 419 kts 193°
2026-04-18 06:15 49.02820 8.43551 26387 ft 420 kts 196°
2026-04-18 06:15 48.99942 8.42544 26757 ft 422 kts 196°
2026-04-18 06:15 48.97046 8.41532 27119 ft 425 kts 196°
2026-04-18 06:15 48.94179 8.40532 27463 ft 427 kts 196°
2026-04-18 06:16 48.91249 8.39513 27799 ft 429 kts 196°
2026-04-18 06:16 48.88381 8.38516 28119 ft 431 kts 196°
2026-04-18 06:16 48.85380 8.37474 28445 ft 434 kts 196°
2026-04-18 06:16 48.82395 8.36441 28761 ft 436 kts 196°
2026-04-18 06:17 48.79567 8.35464 29057 ft 437 kts 196°
2026-04-18 06:17 48.76762 8.34474 29345 ft 438 kts 196°
2026-04-18 06:17 48.73809 8.33396 29633 ft 440 kts 196°
2026-04-18 06:17 48.70918 8.32334 29909 ft 442 kts 197°
2026-04-18 06:18 48.68001 8.31264 30133 ft 444 kts 197°
2026-04-18 06:18 48.62309 8.29185 30154 ft 442 kts 196°
2026-04-18 06:19 48.57523 8.27444 30163 ft 442 kts 196°
2026-04-18 06:19 48.51444 8.25239 30167 ft 443 kts 196°
2026-04-18 06:20 48.45556 8.23100 30177 ft 444 kts 197°
2026-04-18 06:20 48.39507 8.20887 30176 ft 444 kts 196°
2026-04-18 06:21 48.33446 8.18677 30173 ft 444 kts 197°
2026-04-18 06:21 48.27455 8.16347 30177 ft 443 kts 200°
2026-04-18 06:22 48.21736 8.13221 30183 ft 441 kts 206°
2026-04-18 06:22 48.16186 8.09244 30185 ft 440 kts 209°
2026-04-18 06:23 48.10755 8.05232 30185 ft 440 kts 209°
2026-04-18 06:23 48.05216 8.01152 30185 ft 440 kts 209°
2026-04-18 06:24 47.99700 7.97098 30184 ft 441 kts 209°
2026-04-18 06:24 47.94162 7.93038 30186 ft 441 kts 209°
2026-04-18 06:25 47.88617 7.88982 30182 ft 440 kts 209°
2026-04-18 06:25 47.83192 7.85023 30186 ft 440 kts 209°
2026-04-18 06:26 47.78213 7.81398 30188 ft 439 kts 209°
2026-04-18 06:26 47.73087 7.77672 30190 ft 440 kts 209°
2026-04-18 06:27 47.67888 7.73903 30188 ft 441 kts 209°
2026-04-18 06:27 47.62575 7.70061 30187 ft 442 kts 209°
2026-04-18 06:28 47.57237 7.66208 30175 ft 442 kts 209°
2026-04-18 06:28 47.51654 7.62190 30178 ft 442 kts 209°
2026-04-18 06:29 47.46108 7.58206 30184 ft 442 kts 209°
2026-04-18 06:29 47.40529 7.54208 30187 ft 442 kts 209°
2026-04-18 06:30 47.34983 7.50241 30182 ft 442 kts 209°
2026-04-18 06:30 47.29443 7.46285 30176 ft 442 kts 209°
2026-04-18 06:31 47.23883 7.42329 30146 ft 442 kts 209°
2026-04-18 06:31 47.18475 7.37958 30147 ft 440 kts 217°
2026-04-18 06:32 47.13916 7.32212 29806 ft 434 kts 229°
2026-04-18 06:32 47.11955 7.28831 29544 ft 432 kts 233°
2026-04-18 06:32 47.10071 7.25344 29232 ft 430 kts 234°
2026-04-18 06:32 47.08283 7.22007 28779 ft 428 kts 234°
2026-04-18 06:33 47.06481 7.18666 28344 ft 422 kts 234°
2026-04-18 06:33 47.04639 7.15271 27933 ft 420 kts 233°
2026-04-18 06:33 47.02811 7.11917 27484 ft 417 kts 233°
2026-04-18 06:33 47.01006 7.08615 27017 ft 414 kts 233°
2026-04-18 06:34 46.99212 7.05335 26554 ft 411 kts 233°
2026-04-18 06:34 46.97838 7.02822 26186 ft 408 kts 234°
2026-04-18 06:34 46.96097 6.99647 25718 ft 405 kts 234°
2026-04-18 06:34 46.94336 6.96437 25238 ft 402 kts 234°
2026-04-18 06:35 46.92574 6.93227 24763 ft 399 kts 234°
2026-04-18 06:35 46.90774 6.90129 24295 ft 398 kts 231°
2026-04-18 06:35 46.88876 6.87194 23834 ft 396 kts 229°
2026-04-18 06:35 46.86966 6.84296 23368 ft 394 kts 229°
2026-04-18 06:36 46.85049 6.81389 22894 ft 392 kts 229°
2026-04-18 06:36 46.83146 6.78505 22430 ft 389 kts 229°
2026-04-18 06:36 46.81256 6.75644 21972 ft 387 kts 229°
2026-04-18 06:36 46.79655 6.73224 21589 ft 385 kts 229°
2026-04-18 06:37 46.77763 6.70365 21122 ft 383 kts 229°
2026-04-18 06:37 46.75906 6.67563 20656 ft 380 kts 229°
2026-04-18 06:37 46.74138 6.64897 20221 ft 378 kts 229°
2026-04-18 06:37 46.72321 6.62160 19777 ft 376 kts 229°
2026-04-18 06:38 46.70483 6.59392 19327 ft 374 kts 229°
2026-04-18 06:38 46.68672 6.56669 18864 ft 372 kts 229°
2026-04-18 06:38 46.66947 6.54078 18416 ft 370 kts 229°
2026-04-18 06:38 46.65319 6.51635 18024 ft 368 kts 229°
2026-04-18 06:39 46.63873 6.49467 17662 ft 367 kts 229°
2026-04-18 06:39 46.62225 6.46997 17237 ft 366 kts 229°
2026-04-18 06:39 46.60447 6.44336 16783 ft 364 kts 229°
2026-04-18 06:39 46.58682 6.41696 16336 ft 362 kts 229°
2026-04-18 06:40 46.56904 6.39041 15885 ft 360 kts 228°
2026-04-18 06:40 46.55147 6.36420 15439 ft 359 kts 228°
2026-04-18 06:40 46.53424 6.33857 15055 ft 357 kts 227°
2026-04-18 06:40 46.51664 6.31254 15014 ft 356 kts 227°
2026-04-18 06:41 46.49973 6.28759 14653 ft 354 kts 227°
2026-04-18 06:41 46.48224 6.26178 14084 ft 355 kts 227°
2026-04-18 06:41 46.46487 6.23617 13579 ft 354 kts 227°
2026-04-18 06:41 46.44840 6.21188 13122 ft 352 kts 227°
2026-04-18 06:42 46.43119 6.18653 12647 ft 351 kts 227°
2026-04-18 06:42 46.41405 6.16130 12156 ft 349 kts 227°
2026-04-18 06:42 46.40055 6.14145 11791 ft 348 kts 227°
2026-04-18 06:42 46.38444 6.11780 11512 ft 340 kts 227°
2026-04-18 06:43 46.36816 6.09393 11333 ft 330 kts 227°
2026-04-18 06:43 46.35191 6.07011 11149 ft 320 kts 227°
2026-04-18 06:43 46.33652 6.04758 10989 ft 310 kts 227°
2026-04-18 06:43 46.32144 6.02552 10818 ft 300 kts 227°
2026-04-18 06:44 46.30679 6.00408 10607 ft 293 kts 227°
2026-04-18 06:44 46.29254 5.98326 10258 ft 290 kts 227°
2026-04-18 06:44 46.27829 5.96244 9865 ft 290 kts 227°
2026-04-18 06:44 46.26407 5.94167 9483 ft 289 kts 227°
2026-04-18 06:45 46.25004 5.92121 9109 ft 287 kts 227°
2026-04-18 06:45 46.23588 5.90055 8738 ft 286 kts 227°
2026-04-18 06:45 46.22192 5.88025 8374 ft 284 kts 226°
2026-04-18 06:45 46.20788 5.85983 8007 ft 283 kts 226°
2026-04-18 06:46 46.19409 5.83980 7644 ft 281 kts 226°
2026-04-18 06:46 46.18028 5.81974 7287 ft 279 kts 226°
2026-04-18 06:46 46.16668 5.80002 7181 ft 277 kts 226°
2026-04-18 06:46 46.15279 5.77989 7181 ft 279 kts 226°
2026-04-18 06:47 46.13895 5.75985 7182 ft 280 kts 226°
2026-04-18 06:47 46.12533 5.74014 7178 ft 273 kts 226°
2026-04-18 06:47 46.11157 5.72164 7165 ft 258 kts 214°
2026-04-18 06:47 46.09510 5.71401 7153 ft 252 kts 177°
2026-04-18 06:48 46.07826 5.72071 7181 ft 250 kts 145°
2026-04-18 06:48 46.06546 5.73708 7206 ft 248 kts 132°
2026-04-18 06:48 46.05349 5.75497 7196 ft 248 kts 132°
2026-04-18 06:48 46.04178 5.77341 7182 ft 247 kts 120°
2026-04-18 06:49 46.03631 5.79624 7028 ft 237 kts 89°
2026-04-18 06:49 46.03968 5.81917 6626 ft 234 kts 58°
2026-04-18 06:49 46.04990 5.83701 6240 ft 233 kts 42°
2026-04-18 06:49 46.06191 5.85257 5930 ft 231 kts 41°
2026-04-18 06:50 46.07380 5.86820 5628 ft 229 kts 42°
2026-04-18 06:50 46.08516 5.88394 5328 ft 227 kts 44°
2026-04-18 06:50 46.09636 5.90007 5031 ft 224 kts 45°
2026-04-18 06:50 46.10728 5.91613 4739 ft 222 kts 45°
2026-04-18 06:51 46.11787 5.93181 4443 ft 213 kts 45°
2026-04-18 06:51 46.12780 5.94653 4217 ft 197 kts 45°
2026-04-18 06:51 46.13707 5.96026 3980 ft 184 kts 45°
2026-04-18 06:51 46.14588 5.97328 3711 ft 180 kts 45°
2026-04-18 06:52 46.15464 5.98620 3457 ft 180 kts 45°
2026-04-18 06:52 46.16340 5.99912 3226 ft 175 kts 45°
2026-04-18 06:52 46.17158 6.01118 2991 ft 161 kts 45°
2026-04-18 06:52 46.17909 6.02225 2747 ft 148 kts 45°
2026-04-18 06:53 46.18623 6.03275 2564 ft 147 kts 45°
2026-04-18 06:53 46.19342 6.04333 2385 ft 147 kts 45°
2026-04-18 06:53 46.20058 6.05386 2198 ft 146 kts 45°
2026-04-18 06:53 46.20776 6.06430 1995 ft 146 kts 45°
2026-04-18 06:54 46.21492 6.07487 1811 ft 145 kts 46°
2026-04-18 06:54 46.22184 6.08514 1606 ft 144 kts 45°
2026-04-18 06:54 46.22878 6.09538 1429 ft 141 kts 45°
2026-04-18 06:54 46.23514 6.10471 1391 ft 108 kts 47°
2026-04-18 06:55 46.23922 6.11065 1381 ft 58 kts 44°
2026-04-18 06:55 46.24173 6.11435 1375 ft 45 kts 46°
2026-04-18 06:55 46.24308 6.11698 1372 ft 27 kts 68°
2026-04-18 06:55 46.24342 6.11885 1370 ft 14 kts 86°
2026-04-18 06:56 46.24281 6.11923 1370 ft 12 kts 217°
2026-04-18 06:56 46.24219 6.11837 1371 ft 12 kts 225°
2026-04-18 06:56 46.24161 6.11752 1372 ft 11 kts 226°
2026-04-18 06:56 46.24105 6.11667 1373 ft 11 kts 226°
2026-04-18 06:57 46.24052 6.11587 1374 ft 10 kts 225°
2026-04-18 06:57 46.23954 6.11446 1377 ft 9 kts 225°
2026-04-18 06:57 46.23906 6.11374 1378 ft 10 kts 225°
2026-04-18 06:58 46.23850 6.11291 1379 ft 12 kts 225°
2026-04-18 06:58 46.23788 6.11201 1381 ft 13 kts 225°
2026-04-18 06:58 46.23711 6.11087 1382 ft 17 kts 225°
2026-04-18 06:58 46.23620 6.10956 1384 ft 17 kts 225°
2026-04-18 06:59 46.23540 6.10839 1387 ft 15 kts 225°
2026-04-18 06:59 46.23470 6.10736 1388 ft 13 kts 226°
2026-04-18 06:59 46.23393 6.10739 1389 ft 12 kts 138°
2026-04-18 06:59 46.23320 6.10796 1388 ft 12 kts 185°
2026-04-18 07:00 46.23244 6.10764 1389 ft 10 kts 211°
2026-04-18 07:00 46.23191 6.10696 1391 ft 9 kts 226°
2026-04-18 07:00 46.23146 6.10630 1391 ft 8 kts 225°
2026-04-18 07:00 46.23109 6.10576 1393 ft 1 kts 226°
2026-04-18 07:01 46.23111 6.10578 1393 ft 1 kts 226°
2026-04-18 07:01 46.23096 6.10556 1393 ft 4 kts 226°
2026-04-18 07:01 46.23069 6.10528 1393 ft 4 kts 166°
2026-04-18 07:01 46.23041 6.10556 1392 ft 4 kts 136°
2026-04-18 07:02 46.23033 6.10566 1392 ft 0 kts 135°